KD8TSA Weather Reports


time (UTC)temp
F
wind
direction
speed
knots
gust
knots
rain 1hr
in
rain 24hr
in
rain mn
in
humidity
%
barometer
mb
20260507054212 44 172 0.0 0.0 0.00 0.00 0.00 87 1013.3
20260507053709 44 205 0.0 0.0 0.00 0.00 0.00 86 1013.3
20260507053207 44 195 0.0 0.0 0.00 0.00 0.00 86 1013.5
20260507052706 45 174 0.0 0.0 0.00 0.00 0.00 85 1013.5
20260507052201 46 174 0.0 0.0 0.00 0.00 0.00 84 1013.4
20260507051700 46 186 0.0 0.0 0.00 0.00 0.00 84 1013.4
20260507051156 46 186 0.0 0.0 0.00 0.00 0.00 84 1013.7
20260507050653 46 193 0.0 0.0 0.00 0.00 0.00 85 1013.6
20260507050149 46 187 0.0 0.0 0.00 0.00 0.00 85 1013.7
20260507045646 46 199 0.0 0.0 0.00 0.00 0.00 85 1013.8
20260507045143 46 194 0.0 0.0 0.00 0.00 0.00 85 1013.7
20260507044640 46 195 0.0 0.0 0.00 0.00 0.00 85 1013.6
20260507044137 46 193 0.0 0.0 0.00 0.00 0.00 84 1013.8
20260507043633 46 198 0.0 0.0 0.00 0.00 0.00 84 1013.9
20260507043125 47 198 0.0 0.0 0.00 0.00 0.00 84 1013.8
20260507042621 47 227 0.0 0.0 0.00 0.00 0.00 84 1013.7
20260507042116 47 213 0.0 0.0 0.00 0.00 0.00 83 1013.6
20260507041613 47 187 0.0 0.0 0.00 0.00 0.00 83 1013.7
20260507041110 47 199 0.0 0.0 0.00 0.00 0.00 83 1013.7
20260507040606 47 190 0.0 0.0 0.00 0.00 0.00 83 1013.5
20260507035558 47 193 0.0 0.0 0.00 0.00 0.00 83 1013.8
20260507035055 47 200 0.9 0.9 0.00 0.00 0.00 83 1013.8
20260507034552 47 200 0.9 0.9 0.00 0.00 0.00 83 1013.8
20260507034050 47 203 0.0 0.0 0.00 0.00 0.00 83 1013.7
20260507033548 47 184 0.0 0.0 0.00 0.00 0.00 83 1013.8
20260507033044 47 195 0.0 0.0 0.00 0.00 0.00 83 1013.5
20260507032541 47 186 0.0 0.0 0.00 0.00 0.00 82 1013.5
20260507032037 47 189 0.9 0.9 0.00 0.00 0.00 82 1013.7
20260507031534 47 191 0.0 0.0 0.00 0.00 0.00 82 1013.6
20260507031031 47 190 0.0 0.0 0.00 0.00 0.00 82 1014.0
20260507030528 47 186 0.0 0.0 0.00 0.00 0.00 82 1014.0
20260507030026 47 196 0.0 0.0 0.00 0.00 0.00 82 1014.0
20260507025522 47 190 0.0 0.0 0.00 0.00 0.00 82 1013.7
20260507025020 47 180 0.0 0.0 0.00 0.00 0.00 82 1013.6
20260507024518 47 182 0.0 0.0 0.00 0.00 0.00 82 1013.9
20260507024014 47 177 0.0 0.0 0.00 0.00 0.00 81 1013.9
20260507023510 48 184 0.0 0.0 0.00 0.00 0.00 81 1013.7
20260507023009 48 175 0.0 0.0 0.00 0.00 0.00 80 1013.8
20260507022505 48 184 0.0 0.0 0.00 0.00 0.00 80 1013.8
20260507022001 48 181 0.0 0.0 0.00 0.00 0.00 80 1013.6
20260507021456 49 183 0.0 0.0 0.00 0.00 0.00 80 1013.6
20260507020953 49 183 0.0 0.0 0.00 0.00 0.00 79 1013.8
20260507020450 49 187 0.0 0.0 0.00 0.00 0.00 79 1013.5
20260507015947 50 185 0.0 0.0 0.00 0.00 0.00 78 1013.8
20260507015446 50 182 0.0 0.0 0.00 0.00 0.00 78 1013.5
20260507014942 50 176 0.0 0.0 0.00 0.00 0.00 77 1013.3
20260507014439 50 183 0.0 0.0 0.00 0.00 0.00 76 1013.4
20260507013935 50 183 0.0 0.0 0.00 0.00 0.00 76 1013.3
20260507013432 51 174 0.0 0.0 0.00 0.00 0.00 75 1013.0
20260507012929 51 164 0.0 0.0 0.00 0.00 0.00 74 1012.8
20260507012426 51 168 0.0 0.0 0.00 0.00 0.00 74 1013.0
20260507011922 51 182 0.9 0.9 0.00 0.00 0.00 73 1013.2
20260507011420 52 181 0.0 0.0 0.00 0.00 0.00 73 1013.2
20260507010914 52 178 0.0 0.9 0.00 0.00 0.00 72 1013.0
20260507010409 52 185 0.0 0.0 0.00 0.00 0.00 72 1013.2
20260507005907 52 175 0.9 0.9 0.00 0.00 0.00 71 1012.9
20260507005403 52 185 0.9 1.7 0.00 0.00 0.00 71 1013.2
20260507004900 53 128 0.9 0.9 0.00 0.00 0.00 70 1013.1
20260507004357 53 150 1.7 2.6 0.00 0.00 0.00 69 1013.0
20260507003855 53 184 1.7 2.6 0.00 0.00 0.00 69 1013.2
20260507003350 53 73 0.9 1.7 0.00 0.00 0.00 68 1012.9
20260507002845 54 287 2.6 4.3 0.00 0.00 0.00 68 1013.0
20260507002341 54 359 3.5 5.2 0.00 0.00 0.00 67 1013.1
20260507001839 54 164 3.5 4.3 0.00 0.00 0.00 66 1012.8
20260507001335 54 324 3.5 5.2 0.00 0.00 0.00 66 1012.7
20260507000831 54 282 2.6 4.3 0.00 0.00 0.00 66 1012.5
20260507000328 55 233 0.9 1.7 0.00 0.00 0.00 66 1012.3
20260506235824 55 270 3.5 4.3 0.00 0.00 0.00 66 1012.3
20260506235321 55 166 2.6 5.2 0.00 0.00 0.00 66 1012.0
20260506234817 55 258 1.7 1.7 0.00 0.00 0.00 67 1012.3
20260506234315 55 140 0.9 1.7 0.00 0.00 0.00 67 1012.0
20260506233812 55 147 1.7 2.6 0.00 0.00 0.00 67 1012.2
20260506233308 55 266 0.9 1.7 0.00 0.00 0.00 67 1012.0
20260506232805 55 176 1.7 2.6 0.00 0.00 0.00 67 1011.9
20260506232300 55 169 3.5 6.1 0.00 0.00 0.00 66 1011.9
20260506231757 55 276 3.5 5.2 0.00 0.00 0.00 67 1011.9
20260506231255 55 311 2.6 4.3 0.00 0.00 0.00 66 1012.1
20260506230752 55 328 6.1 8.7 0.00 0.00 0.00 66 1012.2
20260506230249 55 77 2.6 4.3 0.00 0.00 0.00 67 1012.4
20260506225745 56 333 4.3 5.2 0.00 0.00 0.00 67 1012.2
20260506225242 56 331 3.5 5.2 0.00 0.00 0.00 67 1012.3
20260506224733 56 2 3.5 5.2 0.00 0.00 0.00 67 1012.1
20260506224231 56 2 2.6 4.3 0.00 0.00 0.00 67 1012.3
20260506223727 57 272 4.3 5.2 0.00 0.00 0.00 67 1012.3
20260506223222 57 249 1.7 2.6 0.00 0.00 0.00 67 1012.3
20260506222720 56 299 4.3 5.2 0.00 0.00 0.00 67 1012.7
20260506222214 56 29 1.7 1.7 0.00 0.00 0.00 67 1012.6
20260506221713 57 320 6.1 7.8 0.00 0.00 0.00 67 1012.6
20260506221210 56 192 3.5 4.3 0.00 0.00 0.00 67 1012.2
20260506220707 57 45 5.2 6.1 0.00 0.00 0.00 66 1012.4
20260506220203 57 327 2.6 2.6 0.00 0.00 0.00 67 1012.6
20260506215700 57 282 1.7 2.6 0.00 0.00 0.00 67 1012.5
20260506215154 57 196 1.7 1.7 0.00 0.00 0.00 65 1012.4
20260506214652 57 326 1.7 1.7 0.00 0.00 0.00 65 1012.2
20260506214149 57 324 4.3 5.2 0.00 0.00 0.00 65 1012.1
20260506213647 57 77 2.6 2.6 0.00 0.00 0.00 65 1012.0
20260506213144 58 269 2.6 2.6 0.00 0.00 0.00 65 1011.9
20260506212641 57 88 1.7 1.7 0.00 0.00 0.00 65 1011.9
20260506212136 57 157 1.7 2.6 0.00 0.00 0.00 65 1012.2
20260506211632 58 112 3.5 4.3 0.00 0.00 0.00 65 1011.8
20260506211129 58 35 2.6 2.6 0.00 0.00 0.00 66 1011.7
20260506210621 58 153 6.1 7.0 0.00 0.00 0.00 65 1011.6
20260506210117 58 329 4.3 6.1 0.00 0.00 0.00 65 1011.7
20260506205614 58 321 5.2 7.8 0.00 0.00 0.00 65 1011.7
20260506205114 58 335 5.2 7.0 0.00 0.00 0.00 63 1011.6
20260506204612 58 58 2.6 4.3 0.00 0.00 0.00 64 1011.7
20260506204109 59 295 3.5 5.2 0.00 0.00 0.00 63 1011.9
20260506203607 59 348 4.3 6.1 0.00 0.00 0.00 63 1011.6
20260506203103 59 318 4.3 6.1 0.00 0.00 0.00 63 1011.8
20260506202601 58 293 5.2 7.0 0.00 0.00 0.00 61 1011.6
20260506202057 59 102 2.6 2.6 0.00 0.00 0.00 62 1011.9
20260506201555 59 250 2.6 2.6 0.00 0.00 0.00 64 1012.0
20260506201051 58 329 6.1 7.0 0.00 0.00 0.00 64 1012.0
20260506200547 59 279 6.1 7.0 0.00 0.00 0.00 64 1011.7
20260506200044 59 67 7.0 8.7 0.00 0.00 0.00 64 1011.7
20260506195541 59 208 4.3 5.2 0.00 0.00 0.00 64 1011.8
20260506195037 59 351 4.3 5.2 0.00 0.00 0.00 63 1011.4
20260506194535 60 254 6.1 6.1 0.00 0.00 0.00 64 1011.7
20260506194031 60 73 2.6 4.3 0.00 0.00 0.00 64 1011.7
20260506193529 59 247 2.6 6.1 0.00 0.00 0.00 63 1011.7
20260506193026 59 314 5.2 7.8 0.00 0.00 0.00 62 1011.5
20260506192523 59 34 3.5 6.1 0.00 0.00 0.00 63 1011.5
20260506192019 60 338 5.2 7.0 0.00 0.00 0.00 63 1011.5
20260506191516 60 239 3.5 4.3 0.00 0.00 0.00 65 1011.4
20260506191012 60 223 6.1 7.0 0.00 0.00 0.00 64 1011.4
20260506190509 59 335 5.2 6.1 0.00 0.00 0.00 65 1011.4
20260506190006 59 197 1.7 2.6 0.00 0.00 0.00 65 1011.7
20260506185503 59 308 4.3 5.2 0.00 0.00 0.00 64 1011.3
20260506184959 59 324 2.6 2.6 0.00 0.00 0.00 64 1011.4
20260506184457 59 305 7.8 11.3 0.00 0.00 0.00 65 1011.6
20260506183954 59 26 2.6 4.3 0.00 0.00 0.00 62 1011.4
20260506183449 58 302 7.8 8.7 0.00 0.00 0.00 61 1011.5
20260506182946 58 318 3.5 6.1 0.00 0.00 0.00 65 1011.5
20260506182444 58 23 2.6 5.2 0.00 0.00 0.00 66 1011.5
20260506181941 58 41 4.3 6.1 0.00 0.00 0.00 63 1011.5
20260506181439 59 47 5.2 7.0 0.00 0.00 0.00 66 1011.4
20260506180930 58 36 1.7 1.7 0.00 0.00 0.00 65 1011.5
20260506180427 58 12 5.2 7.0 0.00 0.00 0.00 64 1011.7
20260506175924 58 306 6.1 7.8 0.00 0.00 0.00 64 1012.1
20260506175420 59 159 1.7 4.3 0.00 0.00 0.00 64 1011.7
20260506174916 58 67 3.5 5.2 0.00 0.00 0.00 69 1011.7
20260506174414 58 317 7.8 11.3 0.00 0.00 0.00 65 1011.9
20260506173911 58 295 2.6 4.3 0.00 0.00 0.00 66 1011.9
20260506173408 58 34 4.3 7.0 0.00 0.00 0.00 67 1011.9
20260506172906 58 119 2.6 2.6 0.00 0.00 0.00 68 1011.9
20260506172402 57 40 2.6 4.3 0.00 0.00 0.00 69 1011.9
20260506171900 57 336 1.7 2.6 0.00 0.00 0.00 71 1011.8
20260506171356 57 32 2.6 4.3 0.00 0.00 0.00 70 1012.0
20260506170854 57 41 2.6 4.3 0.00 0.00 0.00 70 1011.8
20260506170349 57 286 6.1 7.8 0.00 0.00 0.00 68 1012.0
20260506165849 57 46 2.6 2.6 0.00 0.00 0.00 70 1011.9
20260506165346 56 226 2.6 2.6 0.00 0.00 0.00 72 1011.9
20260506164837 57 341 3.5 4.3 0.00 0.00 0.00 72 1011.9
20260506164334 56 356 2.6 2.6 0.00 0.00 0.00 73 1012.0
20260506163832 56 30 4.3 6.1 0.00 0.00 0.00 72 1011.6
20260506163326 56 350 3.5 5.2 0.00 0.00 0.00 73 1011.9
20260506162821 55 22 5.2 7.0 0.00 0.00 0.00 74 1011.8
20260506162319 55 21 2.6 2.6 0.00 0.00 0.00 74 1011.9
20260506161817 55 172 1.7 2.6 0.00 0.00 0.00 75 1011.9
20260506161314 54 39 2.6 4.3 0.00 0.00 0.00 76 1012.0
20260506160811 55 46 5.2 7.8 0.00 0.00 0.00 77 1012.3
20260506160308 54 207 1.7 2.6 0.00 0.00 0.00 78 1011.9
20260506155807 55 294 5.2 7.0 0.00 0.00 0.00 77 1012.0
20260506155306 54 37 4.3 6.1 0.00 0.00 0.00 77 1011.8
20260506153415 53 48 1.7 2.6 0.00 0.00 0.00 79 1011.2
20260506152913 53 344 3.5 5.2 0.00 0.00 0.00 81 1011.4
20260506152410 52 349 1.7 2.6 0.00 0.00 0.00 82 1011.7
20260506151908 52 51 1.7 2.6 0.00 0.00 0.00 82 1011.5
20260506151405 52 299 4.3 5.2 0.00 0.00 0.00 83 1011.1
20260506150903 52 189 2.6 4.3 0.00 0.00 0.00 84 1011.2
20260506150358 52 8 4.3 5.2 0.00 0.00 0.00 85 1010.9
20260506145855 51 313 4.3 5.2 0.00 0.00 0.00 87 1011.2
20260506145351 51 28 4.3 6.1 0.00 0.00 0.00 89 1011.2
20260506144849 50 75 2.6 2.6 0.00 0.00 0.00 92 1010.6
20260506144345 50 343 4.3 6.1 0.00 0.00 0.00 94 1010.8
20260506143844 50 313 2.6 4.3 0.00 0.00 0.00 95 1010.8
20260506143341 49 341 4.3 6.1 0.00 0.00 0.00 97 1010.8
20260506142839 49 304 6.1 7.0 0.00 0.00 0.00 97 1010.7
20260506142337 49 303 4.3 6.1 0.00 0.00 0.00 98 1010.8
20260506141835 49 330 2.6 4.3 0.00 0.00 0.00 98 1010.7
20260506141333 49 338 5.2 6.1 0.00 0.00 0.00 98 1010.8
20260506140830 48 282 3.5 5.2 0.00 0.00 0.00 99 1010.4
20260506140327 48 339 5.2 6.1 0.00 0.00 0.00 99 1010.3
20260506135824 48 55 2.6 4.3 0.00 0.00 0.00 99 1010.5
20260506135320 48 280 5.2 6.1 0.00 0.00 0.00 99 1010.3
20260506134817 48 45 2.6 2.6 0.00 0.00 0.00 99 1010.2
20260506134313 47 325 3.5 4.3 0.00 0.00 0.00 99 1010.2
20260506133811 47 347 2.6 4.3 0.00 0.00 0.00 99 1010.1
20260506133307 47 106 2.6 4.3 0.00 0.00 0.00 99 1010.1
20260506132804 47 353 4.3 5.2 0.00 0.00 0.00 99 1010.1
20260506132301 47 17 3.5 4.3 0.00 0.00 0.00 99 1010.3
20260506131759 46 81 0.9 1.7 0.00 0.00 0.00 99 1009.9
20260506131255 46 34 5.2 7.0 0.00 0.00 0.00 99 1010.3
20260506130752 46 332 4.3 5.2 0.00 0.00 0.00 99 1010.0
20260506130249 46 294 3.5 4.3 0.00 0.00 0.00 99 1010.0
20260506125747 46 107 0.9 1.7 0.00 0.00 0.00 99 1010.0
20260506125245 46 274 2.6 4.3 0.00 0.00 0.00 99 1009.9
20260506124743 46 38 0.9 1.7 0.00 0.00 0.00 99 1009.6
20260506124240 46 25 0.0 0.9 0.00 0.00 0.00 99 1009.4
20260506123737 46 286 2.6 2.6 0.00 0.00 0.00 99 1009.6
20260506123236 46 218 2.6 2.6 0.00 0.00 0.00 99 1009.4
20260506122732 46 122 2.6 2.6 0.00 0.00 0.00 99 1009.5
20260506122230 46 315 4.3 5.2 0.00 0.00 0.00 99 1009.5
20260506121728 46 129 0.9 0.9 0.00 0.00 0.00 99 1009.4
20260506121224 46 301 4.3 6.1 0.00 0.00 0.00 99 1009.2
20260506120722 46 130 0.0 0.9 0.00 0.00 0.00 99 1009.4
20260506120219 45 79 2.6 4.3 0.00 0.00 0.00 99 1009.0
20260506115717 45 68 1.7 2.6 0.00 0.00 0.00 99 1008.6
20260506115215 45 18 6.1 7.8 0.00 0.00 0.00 99 1008.6
20260506114712 45 93 0.9 0.9 0.00 0.00 0.00 99 1008.7
20260506114210 45 22 2.6 4.3 0.00 0.00 0.00 99 1009.0
20260506113708 45 266 2.6 2.6 0.00 0.00 0.00 99 1008.9
20260506113205 45 57 2.6 5.2 0.00 0.00 0.00 99 1008.8
20260506112701 45 87 1.7 2.6 0.00 0.00 0.00 99 1008.8
20260506112159 45 20 3.5 4.3 0.00 0.00 0.00 99 1008.2
20260506111656 45 304 2.6 4.3 0.00 0.00 0.00 99 1008.3
20260506111154 45 54 3.5 4.3 0.00 0.00 0.00 99 1008.5
20260506110651 45 341 3.5 5.2 0.00 0.00 0.00 99 1008.1
20260506110149 45 299 3.5 4.3 0.00 0.00 0.00 99 1008.0
20260506105645 45 67 3.5 5.2 0.00 0.00 0.00 99 1007.6
20260506105142 45 330 5.2 7.0 0.00 0.00 0.00 99 1007.2
20260506104640 45 114 0.9 0.9 0.00 0.00 0.00 99 1007.5
20260506104137 45 40 1.7 2.6 0.00 0.00 0.00 99 1007.4
20260506103635 45 70 1.7 1.7 0.00 0.00 0.00 99 1007.2
20260506103131 45 307 2.6 4.3 0.00 0.00 0.00 99 1007.0
20260506102630 45 82 3.5 6.1 0.00 0.00 0.00 99 1006.9
20260506102127 45 79 0.9 1.7 0.00 0.00 0.00 99 1007.3
20260506101623 45 73 0.9 1.7 0.00 0.00 0.00 99 1007.2
20260506101120 45 281 3.5 4.3 0.00 0.00 0.00 99 1007.4
20260506100619 45 99 1.7 2.6 0.00 0.00 0.00 99 1007.5
20260506100116 45 270 2.6 4.3 0.00 0.00 0.00 99 1007.4
20260506095615 46 11 3.5 4.3 0.00 0.00 0.00 99 1007.2
20260506095111 46 260 2.6 2.6 0.00 0.00 0.00 99 1007.0
20260506094609 46 351 1.7 1.7 0.00 0.00 0.00 99 1007.1
20260506094106 46 78 1.7 1.7 0.00 0.00 0.00 99 1006.8
20260506093604 46 281 3.5 5.2 0.00 0.00 0.00 99 1006.7
20260506093101 46 17 2.6 4.3 0.00 0.00 0.00 99 1006.9
20260506092559 46 330 2.6 6.1 0.00 0.00 0.00 99 1006.9
20260506092056 46 194 2.6 2.6 0.00 0.00 0.00 99 1007.1
20260506091554 46 21 2.6 4.3 0.00 0.00 0.00 99 1006.9
20260506091051 46 39 2.6 2.6 0.00 0.00 0.00 99 1006.6
20260506090549 46 37 3.5 4.3 0.00 0.00 0.00 99 1006.5
20260506090045 46 37 2.6 2.6 0.00 0.00 0.00 99 1006.5
20260506085542 46 293 2.6 2.6 0.00 0.00 0.00 99 1006.9
20260506085038 46 332 5.2 7.0 0.00 0.00 0.00 99 1006.6
20260506084536 46 90 1.7 2.6 0.00 0.00 0.00 99 1006.6
20260506084031 46 67 2.6 4.3 0.00 0.00 0.00 99 1006.8
20260506083529 46 34 4.3 5.2 0.00 0.00 0.00 99 1006.4
20260506083026 46 8 6.1 12.2 0.00 0.00 0.00 99 1006.5
20260506082523 46 354 4.3 5.2 0.00 0.00 0.00 99 1006.3
20260506082019 46 48 4.3 6.1 0.00 0.00 0.00 99 1005.9
20260506081517 46 25 2.6 4.3 0.00 0.00 0.00 99 1006.1
20260506081014 47 38 4.3 6.1 0.00 0.00 0.00 99 1006.1
20260506080511 47 351 5.2 7.0 0.00 0.00 0.00 99 1006.2
20260506073455 48 32 6.1 7.0 0.00 0.00 0.00 99 1005.9
20260506072952 48 20 0.9 0.9 0.00 0.00 0.00 99 1005.8
20260506072449 48 352 4.3 5.2 0.00 0.00 0.00 99 1005.7
20260506071947 48 66 4.3 6.1 0.00 0.00 0.00 99 1005.8
20260506071445 49 227 5.2 7.8 0.00 0.00 0.00 99 1005.5
20260506070941 49 117 2.6 2.6 0.00 0.00 0.00 99 1005.6
20260506070438 49 352 4.3 7.0 0.00 0.00 0.00 99 1005.4
20260506062416 57 91 0.9 1.7 0.00 0.00 0.00 99 1005.5
20260506061912 57 348 0.9 1.7 0.00 0.00 0.00 99 1005.4
20260506061409 58 169 0.0 0.0 0.00 0.00 0.00 99 1005.3
20260506060906 58 173 0.0 0.0 0.00 0.00 0.00 99 1005.4
20260506060404 58 137 2.6 5.2 0.00 0.00 0.00 99 1005.5